Time,TemperatureF,DewpointF,PressureIn,WindDirection,WindDirectionDegrees,WindSpeedMPH,WindSpeedGustMPH,Humidity,HourlyPrecipIn,Conditions,Clouds,dailyrainin,SolarRadiationWatts/m^2,SoftwareType,DateUTC
2013-06-08 00:01:00,73.0,38.0,30.14,SSE,158,3.0,0.0,28,0.00,,,0.00,0,WeatherHawk,2013-06-08 05:01:00,
2013-06-08 00:06:00,72.6,39.4,30.14,SE,132,0.0,0.0,30,0.00,,,0.00,0,WeatherHawk,2013-06-08 05:06:00,
2013-06-08 00:12:00,71.5,40.9,30.14,SE,132,0.0,0.0,33,0.00,,,0.00,0,WeatherHawk,2013-06-08 05:12:00,
2013-06-08 00:17:00,72.1,40.6,30.14,SE,132,0.0,0.0,32,0.00,,,0.00,0,WeatherHawk,2013-06-08 05:17:00,
2013-06-08 00:22:00,70.1,41.2,30.14,SE,132,0.0,0.0,35,0.00,,,0.00,0,WeatherHawk,2013-06-08 05:22:00,
2013-06-08 00:27:00,70.0,42.6,30.14,SE,132,0.0,0.0,37,0.00,,,0.00,0,WeatherHawk,2013-06-08 05:27:00,
2013-06-08 00:32:00,71.0,42.0,30.14,SE,132,2.0,0.0,35,0.00,,,0.00,1,WeatherHawk,2013-06-08 05:32:00,
2013-06-08 00:37:00,70.6,43.0,30.13,SE,130,0.0,0.0,37,0.00,,,0.00,1,WeatherHawk,2013-06-08 05:37:00,
2013-06-08 00:42:00,68.2,42.3,30.15,SE,130,0.0,0.0,39,0.00,,,0.00,0,WeatherHawk,2013-06-08 05:42:00,
2013-06-08 00:47:00,69.4,45.3,30.15,SE,130,0.0,0.0,42,0.00,,,0.00,0,WeatherHawk,2013-06-08 05:47:00,
2013-06-08 00:52:00,69.8,45.7,30.14,SE,130,0.0,0.0,42,0.00,,,0.00,0,WeatherHawk,2013-06-08 05:52:00,
2013-06-08 00:57:00,67.9,44.6,30.15,SE,130,0.0,0.0,43,0.00,,,0.00,0,WeatherHawk,2013-06-08 05:57:00,
2013-06-08 01:03:00,70.3,46.7,30.14,SE,130,0.0,0.0,43,0.00,,,0.00,1,WeatherHawk,2013-06-08 06:03:00,
2013-06-08 01:08:00,70.2,46.6,30.15,NW,320,0.0,0.0,43,0.00,,,0.00,0,WeatherHawk,2013-06-08 06:08:00,
2013-06-08 01:13:00,69.4,45.3,30.15,NW,320,0.0,0.0,42,0.00,,,0.00,1,WeatherHawk,2013-06-08 06:13:00,
2013-06-08 01:18:00,69.4,47.1,30.15,NW,320,0.0,0.0,45,0.00,,,0.00,0,WeatherHawk,2013-06-08 06:18:00,
2013-06-08 01:23:00,69.3,46.5,30.15,NW,320,0.0,0.0,44,0.00,,,0.00,1,WeatherHawk,2013-06-08 06:23:00,
2013-06-08 01:28:00,69.4,48.3,30.16,NW,320,0.0,0.0,47,0.00,,,0.00,0,WeatherHawk,2013-06-08 06:28:00,
2013-06-08 01:33:00,68.8,49.4,30.15,NW,320,0.0,0.0,50,0.00,,,0.00,0,WeatherHawk,2013-06-08 06:33:00,
2013-06-08 01:38:00,68.5,49.7,30.16,NW,320,0.0,0.0,51,0.00,,,0.00,0,WeatherHawk,2013-06-08 06:38:00,
2013-06-08 01:43:00,67.4,50.6,30.17,NW,320,0.0,0.0,55,0.00,,,0.00,0,WeatherHawk,2013-06-08 06:43:00,
2013-06-08 01:48:00,65.5,51.7,30.16,NW,320,0.0,0.0,61,0.00,,,0.00,0,WeatherHawk,2013-06-08 06:48:00,
2013-06-08 01:53:00,66.4,53.4,30.16,NW,320,0.0,0.0,63,0.00,,,0.00,0,WeatherHawk,2013-06-08 06:53:00,
2013-06-08 01:58:00,66.7,54.5,30.17,NW,320,0.0,0.0,65,0.00,,,0.00,0,WeatherHawk,2013-06-08 06:58:00,
2013-06-08 02:04:00,67.3,55.6,30.16,NW,320,0.0,0.0,66,0.00,,,0.00,1,WeatherHawk,2013-06-08 07:04:00,
2013-06-08 02:09:00,67.7,53.8,30.18,NW,320,0.0,0.0,61,0.00,,,0.00,0,WeatherHawk,2013-06-08 07:09:00,
2013-06-08 02:14:00,68.0,50.7,30.17,NW,320,0.0,0.0,54,0.00,,,0.00,0,WeatherHawk,2013-06-08 07:14:00,
2013-06-08 02:19:00,67.0,51.3,30.17,NW,320,0.0,0.0,57,0.00,,,0.00,0,WeatherHawk,2013-06-08 07:19:00,
2013-06-08 02:24:00,67.0,51.8,30.17,NW,320,0.0,0.0,58,0.00,,,0.00,0,WeatherHawk,2013-06-08 07:24:00,
2013-06-08 02:30:00,67.0,52.7,30.17,NW,320,0.0,0.0,60,0.00,,,0.00,1,WeatherHawk,2013-06-08 07:30:00,
2013-06-08 02:35:00,67.6,54.1,30.16,NW,320,0.0,0.0,62,0.00,,,0.00,1,WeatherHawk,2013-06-08 07:35:00,
2013-06-08 02:40:00,69.5,51.6,30.15,NW,320,0.0,0.0,53,0.00,,,0.00,0,WeatherHawk,2013-06-08 07:40:00,
2013-06-08 02:45:00,69.9,50.9,30.15,SSW,204,0.0,0.0,51,0.00,,,0.00,0,WeatherHawk,2013-06-08 07:45:00,
2013-06-08 02:50:00,67.6,50.3,30.15,SSW,204,0.0,0.0,54,0.00,,,0.00,1,WeatherHawk,2013-06-08 07:50:00,
2013-06-08 02:55:00,69.0,52.1,30.15,SSW,204,0.0,0.0,55,0.00,,,0.00,0,WeatherHawk,2013-06-08 07:55:00,
2013-06-08 03:00:00,69.7,49.7,30.14,SSW,204,0.0,0.0,49,0.00,,,0.00,0,WeatherHawk,2013-06-08 08:00:00,
2013-06-08 03:04:00,68.4,50.6,30.14,SSW,204,0.0,0.0,53,0.00,,,0.00,1,WeatherHawk,2013-06-08 08:04:00,
2013-06-08 03:10:00,67.9,49.6,30.14,SSW,204,0.0,0.0,52,0.00,,,0.00,1,WeatherHawk,2013-06-08 08:10:00,
2013-06-08 03:14:00,67.1,50.9,30.14,SSW,204,0.0,-999.0,56,0.00,,,0.00,0,WeatherHawk,2013-06-08 08:14:00,
2013-06-08 03:20:00,67.4,49.2,30.14,SSW,204,0.0,0.0,52,0.00,,,0.00,0,WeatherHawk,2013-06-08 08:20:00,
2013-06-08 03:24:00,67.7,51.5,30.14,SSW,204,0.0,0.0,56,0.00,,,0.00,0,WeatherHawk,2013-06-08 08:24:00,
2013-06-08 03:30:00,66.2,51.0,30.14,SSW,204,0.0,0.0,58,0.00,,,0.00,0,WeatherHawk,2013-06-08 08:30:00,
2013-06-08 03:35:00,66.5,51.7,30.16,SSW,204,0.0,-999.0,59,0.00,,,0.00,0,WeatherHawk,2013-06-08 08:35:00,
2013-06-08 03:40:00,65.9,52.9,30.16,SSW,204,0.0,0.0,63,0.00,,,0.00,1,WeatherHawk,2013-06-08 08:40:00,
2013-06-08 03:44:00,66.4,54.2,30.16,SSW,204,0.0,0.0,65,0.00,,,0.00,0,WeatherHawk,2013-06-08 08:44:00,
2013-06-08 03:50:00,65.7,54.9,30.17,SSW,204,0.0,0.0,68,0.00,,,0.00,0,WeatherHawk,2013-06-08 08:50:00,
2013-06-08 03:54:00,66.0,55.2,30.17,SSW,204,0.0,-999.0,68,0.00,,,0.00,0,WeatherHawk,2013-06-08 08:54:00,
2013-06-08 03:59:00,65.5,56.6,30.16,SSW,204,0.0,0.0,73,0.00,,,0.00,0,WeatherHawk,2013-06-08 08:59:00,
2013-06-08 04:05:00,65.1,55.8,30.15,ESE,114,0.0,0.0,72,0.00,,,0.00,0,WeatherHawk,2013-06-08 09:05:00,
2013-06-08 04:10:00,66.2,52.3,30.15,SE,129,0.0,0.0,61,0.00,,,0.00,1,WeatherHawk,2013-06-08 09:10:00,
2013-06-08 04:15:00,64.9,53.7,30.15,SE,128,0.0,-999.0,67,0.00,,,0.00,0,WeatherHawk,2013-06-08 09:15:00,
2013-06-08 04:20:00,65.1,51.3,30.14,SE,128,0.0,0.0,61,0.00,,,0.00,0,WeatherHawk,2013-06-08 09:20:00,
2013-06-08 04:25:00,63.8,53.9,30.14,SE,128,0.0,0.0,70,0.00,,,0.00,0,WeatherHawk,2013-06-08 09:25:00,
2013-06-08 04:30:00,65.7,54.5,30.14,SE,128,0.0,0.0,67,0.00,,,0.00,1,WeatherHawk,2013-06-08 09:30:00,
2013-06-08 04:35:00,65.9,52.1,30.14,SE,128,0.0,0.0,61,0.00,,,0.00,0,WeatherHawk,2013-06-08 09:35:00,
2013-06-08 04:40:00,66.1,51.8,30.15,SE,128,0.0,0.0,60,0.00,,,0.00,1,WeatherHawk,2013-06-08 09:40:00,
2013-06-08 04:45:00,67.4,51.7,30.14,SSE,154,3.0,0.0,57,0.00,,,0.00,1,WeatherHawk,2013-06-08 09:45:00,
2013-06-08 04:50:00,66.5,48.9,30.14,SE,139,0.0,0.0,53,0.00,,,0.00,0,WeatherHawk,2013-06-08 09:50:00,
2013-06-08 04:55:00,66.3,49.2,30.13,SE,139,1.0,0.0,54,0.00,,,0.00,1,WeatherHawk,2013-06-08 09:55:00,
2013-06-08 04:59:00,66.5,49.3,30.14,SE,131,2.0,-999.0,54,0.00,,,0.00,0,WeatherHawk,2013-06-08 09:59:00,
2013-06-08 05:05:00,66.1,49.4,30.14,ESE,110,2.0,0.0,55,0.00,,,0.00,0,WeatherHawk,2013-06-08 10:05:00,
2013-06-08 05:10:00,65.8,49.2,30.14,ESE,116,0.0,0.0,55,0.00,,,0.00,0,WeatherHawk,2013-06-08 10:10:00,
2013-06-08 05:14:00,66.3,50.1,30.14,ESE,117,3.0,0.0,56,0.00,,,0.00,0,WeatherHawk,2013-06-08 10:14:00,
2013-06-08 05:20:00,65.9,50.3,30.14,ESE,121,2.0,0.0,57,0.00,,,0.00,0,WeatherHawk,2013-06-08 10:20:00,
2013-06-08 05:25:00,65.8,50.6,30.14,ESE,116,1.0,0.0,58,0.00,,,0.00,0,WeatherHawk,2013-06-08 10:25:00,
2013-06-08 05:30:00,65.8,51.5,30.14,SE,131,3.0,0.0,60,0.00,,,0.00,1,WeatherHawk,2013-06-08 10:30:00,
2013-06-08 05:34:00,66.0,51.3,30.14,SE,131,2.0,0.0,59,0.00,,,0.00,0,WeatherHawk,2013-06-08 10:34:00,
2013-06-08 05:39:00,65.8,52.0,30.14,SE,131,0.0,-999.0,61,0.00,,,0.00,1,WeatherHawk,2013-06-08 10:39:00,
2013-06-08 05:45:00,65.7,51.5,30.14,SE,132,2.0,0.0,60,0.00,,,0.00,0,WeatherHawk,2013-06-08 10:45:00,
2013-06-08 05:49:00,65.7,51.0,30.14,ESE,123,3.0,0.0,59,0.00,,,0.00,0,WeatherHawk,2013-06-08 10:49:00,
2013-06-08 05:55:00,65.3,51.0,30.14,ESE,111,1.0,0.0,60,0.00,,,0.00,0,WeatherHawk,2013-06-08 10:55:00,
2013-06-08 05:59:00,65.6,51.3,30.15,SE,141,3.0,-999.0,60,0.00,,,0.00,1,WeatherHawk,2013-06-08 10:59:00,
2013-06-08 06:05:00,65.6,50.4,30.15,SE,139,4.0,0.0,58,0.00,,,0.00,3,WeatherHawk,2013-06-08 11:05:00,
2013-06-08 06:10:00,65.9,49.3,30.14,SE,145,4.0,0.0,55,0.00,,,0.00,1,WeatherHawk,2013-06-08 11:10:00,
2013-06-08 06:14:00,66.7,48.5,30.15,SE,138,4.0,0.0,52,0.00,,,0.00,3,WeatherHawk,2013-06-08 11:14:00,
2013-06-08 06:20:00,65.1,48.0,30.15,ESE,119,0.0,0.0,54,0.00,,,0.00,9,WeatherHawk,2013-06-08 11:20:00,
2013-06-08 06:25:00,66.0,48.9,30.15,ESE,112,2.0,0.0,54,0.00,,,0.00,13,WeatherHawk,2013-06-08 11:25:00,
2013-06-08 06:30:00,66.1,48.0,30.15,ESE,105,3.0,0.0,52,0.00,,,0.00,18,WeatherHawk,2013-06-08 11:30:00,
2013-06-08 06:35:00,66.5,47.8,30.15,ESE,105,4.0,-999.0,51,0.00,,,0.00,36,WeatherHawk,2013-06-08 11:35:00,
2013-06-08 06:40:00,66.7,47.5,30.15,East,88,0.0,0.0,50,0.00,,,0.00,48,WeatherHawk,2013-06-08 11:40:00,
2013-06-08 06:44:00,66.4,46.7,30.15,East,96,1.0,0.0,49,0.00,,,0.00,52,WeatherHawk,2013-06-08 11:44:00,
2013-06-08 06:50:00,66.8,47.0,30.16,ESE,118,3.0,0.0,49,0.00,,,0.00,74,WeatherHawk,2013-06-08 11:50:00,
2013-06-08 06:54:00,67.7,46.8,30.15,SE,143,2.0,0.0,47,0.00,,,0.00,95,WeatherHawk,2013-06-08 11:54:00,
2013-06-08 07:00:00,67.7,46.1,30.16,SE,127,2.0,0.0,46,0.00,,,0.00,109,WeatherHawk,2013-06-08 12:00:00,
2013-06-08 07:04:00,67.7,46.2,30.15,SE,145,3.0,-999.0,46,0.00,,,0.00,116,WeatherHawk,2013-06-08 12:04:00,
2013-06-08 07:09:00,67.8,46.2,30.15,ESE,114,0.0,0.0,46,0.00,,,0.00,102,WeatherHawk,2013-06-08 12:09:00,
2013-06-08 07:14:00,69.2,47.5,30.15,SSE,157,0.0,-999.0,46,0.00,,,0.00,149,WeatherHawk,2013-06-08 12:14:00,
2013-06-08 07:19:00,68.6,45.8,30.16,East,93,1.0,0.0,44,0.00,,,0.00,158,WeatherHawk,2013-06-08 12:19:00,
2013-06-08 07:24:00,70.6,46.4,30.15,SE,130,0.0,0.0,42,0.00,,,0.00,202,WeatherHawk,2013-06-08 12:24:00,
2013-06-08 07:29:00,69.6,44.2,30.15,ESE,117,3.0,0.0,40,0.00,,,0.00,217,WeatherHawk,2013-06-08 12:29:00,
2013-06-08 07:35:00,70.4,43.6,30.14,North,351,1.0,0.0,38,0.00,,,0.00,234,WeatherHawk,2013-06-08 12:35:00,
2013-06-08 07:40:00,71.8,44.8,30.14,East,100,0.0,-999.0,38,0.00,,,0.00,245,WeatherHawk,2013-06-08 12:40:00,
2013-06-08 07:45:00,70.6,42.3,30.13,SE,130,3.0,0.0,36,0.00,,,0.00,259,WeatherHawk,2013-06-08 12:45:00,
2013-06-08 07:50:00,71.2,42.1,30.14,ESE,121,2.0,-999.0,35,0.00,,,0.00,247,WeatherHawk,2013-06-08 12:50:00,
2013-06-08 07:54:00,71.4,42.3,30.15,East,97,4.0,-999.0,35,0.00,,,0.00,270,WeatherHawk,2013-06-08 12:54:00,
2013-06-08 08:00:00,72.2,43.0,30.13,SSE,157,2.0,-999.0,35,0.00,,,0.00,234,WeatherHawk,2013-06-08 13:00:00,
2013-06-08 08:04:00,71.4,42.3,30.13,ESE,123,3.0,0.0,35,0.00,,,0.00,226,WeatherHawk,2013-06-08 13:04:00,
2013-06-08 08:10:00,73.1,43.0,30.14,SSW,205,0.0,0.0,34,0.00,,,0.00,256,WeatherHawk,2013-06-08 13:10:00,
2013-06-08 08:15:00,71.1,41.3,30.14,SE,130,3.0,0.0,34,0.00,,,0.00,168,WeatherHawk,2013-06-08 13:15:00,
2013-06-08 08:20:00,71.3,41.5,30.13,SE,135,3.0,0.0,34,0.00,,,0.00,282,WeatherHawk,2013-06-08 13:20:00,
2013-06-08 08:25:00,73.4,42.5,30.14,ESE,123,1.0,0.0,33,0.00,,,0.00,325,WeatherHawk,2013-06-08 13:25:00,
2013-06-08 08:31:00,74.1,42.3,30.14,SSW,212,0.0,0.0,32,0.00,,,0.00,355,WeatherHawk,2013-06-08 13:31:00,
2013-06-08 08:35:00,74.7,42.0,30.14,ESE,108,1.0,0.0,31,0.00,,,0.00,344,WeatherHawk,2013-06-08 13:35:00,
2013-06-08 08:41:00,78.0,44.1,30.14,SE,125,0.0,0.0,30,0.00,,,0.00,392,WeatherHawk,2013-06-08 13:41:00,
2013-06-08 08:46:00,76.2,35.6,30.14,SSE,155,6.0,0.0,23,0.00,,,0.00,411,WeatherHawk,2013-06-08 13:46:00,
2013-06-08 08:52:00,77.0,36.4,30.15,SSE,164,6.0,0.0,23,0.00,,,0.00,431,WeatherHawk,2013-06-08 13:52:00,
2013-06-08 08:57:00,76.9,34.0,30.14,SSE,159,5.0,0.0,21,0.00,,,0.00,374,WeatherHawk,2013-06-08 13:57:00,
2013-06-08 09:02:00,78.6,35.4,30.14,SSE,162,4.0,0.0,21,0.00,,,0.00,425,WeatherHawk,2013-06-08 14:02:00,
2013-06-08 09:07:00,77.8,33.5,30.13,SSE,159,5.0,0.0,20,0.00,,,0.00,464,WeatherHawk,2013-06-08 14:07:00,
2013-06-08 09:12:00,77.7,32.1,30.13,SE,130,7.0,0.0,19,0.00,,,0.00,456,WeatherHawk,2013-06-08 14:12:00,
2013-06-08 09:17:00,78.9,33.2,30.13,SSE,166,5.0,0.0,19,0.00,,,0.00,437,WeatherHawk,2013-06-08 14:17:00,
2013-06-08 09:23:00,77.0,32.9,30.14,SE,142,4.0,0.0,20,0.00,,,0.00,444,WeatherHawk,2013-06-08 14:23:00,
2013-06-08 09:28:00,77.9,32.3,30.13,SSE,159,7.0,0.0,19,0.00,,,0.00,538,WeatherHawk,2013-06-08 14:28:00,
2013-06-08 09:33:00,79.5,30.9,30.14,South,190,2.0,0.0,17,0.00,,,0.00,549,WeatherHawk,2013-06-08 14:33:00,
2013-06-08 09:39:00,77.7,30.8,30.15,ESE,104,7.0,0.0,18,0.00,,,0.00,562,WeatherHawk,2013-06-08 14:39:00,
2013-06-08 09:44:00,78.4,28.5,30.14,SE,144,6.0,0.0,16,0.00,,,0.00,576,WeatherHawk,2013-06-08 14:44:00,
2013-06-08 09:49:00,77.5,26.2,30.14,South,188,7.0,0.0,15,0.00,,,0.00,589,WeatherHawk,2013-06-08 14:49:00,
2013-06-08 09:54:00,78.8,25.6,30.13,SE,144,5.0,0.0,14,0.00,,,0.00,609,WeatherHawk,2013-06-08 14:54:00,
2013-06-08 09:59:00,77.8,24.8,30.14,SSE,155,11.0,0.0,14,0.00,,,0.00,622,WeatherHawk,2013-06-08 14:59:00,
2013-06-08 10:04:00,78.9,27.4,30.13,ESE,116,7.0,0.0,15,0.00,,,0.00,639,WeatherHawk,2013-06-08 15:04:00,
2013-06-08 10:09:00,78.9,27.3,30.14,ESE,117,10.0,0.0,15,0.00,,,0.00,655,WeatherHawk,2013-06-08 15:09:00,
2013-06-08 10:14:00,78.8,25.6,30.14,SSE,163,6.0,0.0,14,0.00,,,0.00,667,WeatherHawk,2013-06-08 15:14:00,
2013-06-08 10:19:00,78.6,23.7,30.14,SE,135,7.0,0.0,13,0.00,,,0.00,681,WeatherHawk,2013-06-08 15:19:00,
2013-06-08 10:25:00,78.1,23.2,30.13,SE,143,10.0,0.0,13,0.00,,,0.00,698,WeatherHawk,2013-06-08 15:25:00,
2013-06-08 10:29:00,79.2,24.1,30.13,ENE,78,8.0,-999.0,13,0.00,,,0.00,710,WeatherHawk,2013-06-08 15:29:00,
2013-06-08 10:35:00,78.5,25.4,30.14,ESE,117,7.0,0.0,14,0.00,,,0.00,721,WeatherHawk,2013-06-08 15:35:00,
2013-06-08 10:39:00,79.3,24.2,30.12,South,171,9.0,0.0,13,0.00,,,0.00,735,WeatherHawk,2013-06-08 15:39:00,
2013-06-08 10:44:00,80.5,25.1,30.12,North,2,9.0,0.0,13,0.00,,,0.00,748,WeatherHawk,2013-06-08 15:44:00,
2013-06-08 10:49:00,79.0,23.9,30.13,SE,131,8.0,0.0,13,0.00,,,0.00,762,WeatherHawk,2013-06-08 15:49:00,
2013-06-08 10:54:00,81.6,24.1,30.14,WNW,303,6.0,0.0,12,0.00,,,0.00,771,WeatherHawk,2013-06-08 15:54:00,
2013-06-08 10:59:00,81.3,21.8,30.12,SSE,156,8.0,0.0,11,0.00,,,0.00,787,WeatherHawk,2013-06-08 15:59:00,
2013-06-08 11:04:00,82.7,25.0,30.12,ESE,105,7.0,0.0,12,0.00,,,0.00,800,WeatherHawk,2013-06-08 16:04:00,
2013-06-08 11:09:00,80.4,21.1,30.10,SE,136,7.0,0.0,11,0.00,,,0.00,813,WeatherHawk,2013-06-08 16:09:00,
2013-06-08 11:14:00,81.6,22.0,30.11,East,98,7.0,0.0,11,0.00,,,0.00,823,WeatherHawk,2013-06-08 16:14:00,
2013-06-08 11:20:00,80.6,23.3,30.10,SE,129,6.0,0.0,12,0.00,,,0.00,828,WeatherHawk,2013-06-08 16:20:00,
2013-06-08 11:25:00,81.6,19.8,30.10,SSE,162,10.0,0.0,10,0.00,,,0.00,844,WeatherHawk,2013-06-08 16:25:00,
2013-06-08 11:31:00,80.8,23.5,30.09,ESE,123,8.0,0.0,12,0.00,,,0.00,856,WeatherHawk,2013-06-08 16:31:00,
2013-06-08 11:36:00,81.2,21.7,30.12,SE,126,6.0,0.0,11,0.00,,,0.00,867,WeatherHawk,2013-06-08 16:36:00,
2013-06-08 11:41:00,81.0,21.5,30.10,East,91,3.0,0.0,11,0.00,,,0.00,874,WeatherHawk,2013-06-08 16:41:00,
2013-06-08 11:47:00,82.9,20.7,30.09,SW,229,5.0,0.0,10,0.00,,,0.00,885,WeatherHawk,2013-06-08 16:47:00,
2013-06-08 11:52:00,81.6,19.8,30.09,SSE,156,8.0,0.0,10,0.00,,,0.00,896,WeatherHawk,2013-06-08 16:52:00,
2013-06-08 11:58:00,82.2,20.2,30.08,SSE,152,7.0,0.0,10,0.00,,,0.00,904,WeatherHawk,2013-06-08 16:58:00,
2013-06-08 12:03:00,83.5,23.4,30.08,SSE,150,9.0,0.0,11,0.00,,,0.00,917,WeatherHawk,2013-06-08 17:03:00,
2013-06-08 12:08:00,81.1,21.7,30.09,SE,146,9.0,0.0,11,0.00,,,0.00,920,WeatherHawk,2013-06-08 17:08:00,
2013-06-08 12:13:00,81.1,21.6,30.09,SE,135,13.0,0.0,11,0.00,,,0.00,926,WeatherHawk,2013-06-08 17:13:00,
2013-06-08 12:18:00,82.2,22.4,30.09,ESE,118,13.0,0.0,11,0.00,,,0.00,933,WeatherHawk,2013-06-08 17:18:00,
2013-06-08 12:23:00,82.6,20.5,30.09,South,187,9.0,0.0,10,0.00,,,0.00,939,WeatherHawk,2013-06-08 17:23:00,
2013-06-08 12:28:00,83.0,18.4,30.09,SE,141,7.0,0.0,9,0.00,,,0.00,942,WeatherHawk,2013-06-08 17:28:00,
2013-06-08 12:33:00,82.0,20.0,30.09,SSE,155,8.0,0.0,10,0.00,,,0.00,954,WeatherHawk,2013-06-08 17:33:00,
2013-06-08 12:38:00,84.6,19.6,30.09,South,183,8.0,0.0,9,0.00,,,0.00,957,WeatherHawk,2013-06-08 17:38:00,
2013-06-08 12:44:00,83.0,18.3,30.09,SSW,207,8.0,0.0,9,0.00,,,0.00,966,WeatherHawk,2013-06-08 17:44:00,
2013-06-08 12:49:00,84.0,19.1,30.07,SSE,160,4.0,0.0,9,0.00,,,0.00,970,WeatherHawk,2013-06-08 17:49:00,
2013-06-08 12:54:00,83.0,15.6,30.07,SE,142,7.0,0.0,8,0.00,,,0.00,972,WeatherHawk,2013-06-08 17:54:00,
2013-06-08 12:59:00,84.7,16.9,30.07,SSE,163,6.0,0.0,8,0.00,,,0.00,975,WeatherHawk,2013-06-08 17:59:00,
2013-06-08 13:04:00,84.4,21.9,30.07,ESE,118,5.0,0.0,10,0.00,,,0.00,973,WeatherHawk,2013-06-08 18:04:00,
2013-06-08 13:09:00,86.2,20.7,30.08,SE,141,6.0,-999.0,9,0.00,,,0.00,984,WeatherHawk,2013-06-08 18:09:00,
2013-06-08 13:14:00,87.6,21.8,30.06,East,85,5.0,0.0,9,0.00,,,0.00,984,WeatherHawk,2013-06-08 18:14:00,
2013-06-08 13:19:00,84.9,19.8,30.08,South,184,9.0,-999.0,9,0.00,,,0.00,983,WeatherHawk,2013-06-08 18:19:00,
2013-06-08 13:24:00,85.1,17.2,30.05,ENE,75,8.0,0.0,8,0.00,,,0.00,986,WeatherHawk,2013-06-08 18:24:00,
2013-06-08 13:29:00,86.3,15.0,30.06,South,188,2.0,0.0,7,0.00,,,0.00,987,WeatherHawk,2013-06-08 18:29:00,
2013-06-08 13:34:00,85.0,17.1,30.05,SSE,156,9.0,0.0,8,0.00,,,0.00,987,WeatherHawk,2013-06-08 18:34:00,
2013-06-08 13:39:00,85.3,20.1,30.05,SSE,168,7.0,0.0,9,0.00,,,0.00,983,WeatherHawk,2013-06-08 18:39:00,
2013-06-08 13:44:00,88.0,19.3,30.05,South,169,0.0,0.0,8,0.00,,,0.00,984,WeatherHawk,2013-06-08 18:44:00,
2013-06-08 13:49:00,85.9,14.7,30.04,SSE,167,5.0,0.0,7,0.00,,,0.00,989,WeatherHawk,2013-06-08 18:49:00,
2013-06-08 13:54:00,83.7,13.1,30.04,SSE,147,11.0,0.0,7,0.00,,,0.00,991,WeatherHawk,2013-06-08 18:54:00,
2013-06-08 13:59:00,82.9,18.3,30.03,SE,143,12.0,-999.0,9,0.00,,,0.00,993,WeatherHawk,2013-06-08 18:59:00,
2013-06-08 14:04:00,87.1,23.9,30.05,SE,127,6.0,0.0,10,0.00,,,0.00,968,WeatherHawk,2013-06-08 19:04:00,
2013-06-08 14:09:00,86.8,15.4,30.04,SE,140,6.0,0.0,7,0.00,,,0.00,962,WeatherHawk,2013-06-08 19:09:00,
2013-06-08 14:15:00,85.9,17.8,30.03,SSE,164,3.0,0.0,8,0.00,,,0.00,982,WeatherHawk,2013-06-08 19:15:00,
2013-06-08 14:20:00,86.8,15.4,30.03,SSW,198,10.0,0.0,7,0.00,,,0.00,981,WeatherHawk,2013-06-08 19:20:00,
2013-06-08 14:25:00,87.5,21.7,30.03,NNW,341,4.0,0.0,9,0.00,,,0.00,970,WeatherHawk,2013-06-08 19:25:00,
2013-06-08 14:31:00,87.3,21.5,30.03,SE,135,6.0,0.0,9,0.00,,,0.00,963,WeatherHawk,2013-06-08 19:31:00,
2013-06-08 14:37:00,87.3,15.8,30.03,SW,225,10.0,0.0,7,0.00,,,0.00,906,WeatherHawk,2013-06-08 19:37:00,
2013-06-08 14:42:00,88.6,19.8,30.03,South,177,7.0,0.0,8,0.00,,,0.00,973,WeatherHawk,2013-06-08 19:42:00,
2013-06-08 14:47:00,85.5,20.2,30.02,SW,216,8.0,0.0,9,0.00,,,0.00,986,WeatherHawk,2013-06-08 19:47:00,
2013-06-08 14:52:00,86.9,15.4,30.02,South,174,4.0,0.0,7,0.00,,,0.00,942,WeatherHawk,2013-06-08 19:52:00,
2013-06-08 14:57:00,87.6,16.0,30.01,SSW,206,7.0,0.0,7,0.00,,,0.00,910,WeatherHawk,2013-06-08 19:57:00,
2013-06-08 15:02:00,85.3,14.3,30.02,SE,144,4.0,0.0,7,0.00,,,0.00,737,WeatherHawk,2013-06-08 20:02:00,
2013-06-08 15:07:00,87.7,19.1,30.02,SSW,204,4.0,0.0,8,0.00,,,0.00,897,WeatherHawk,2013-06-08 20:07:00,
2013-06-08 15:12:00,89.7,23.4,30.02,South,170,0.0,0.0,9,0.00,,,0.00,693,WeatherHawk,2013-06-08 20:12:00,
2013-06-08 15:17:00,87.1,24.0,30.02,SE,143,8.0,0.0,10,0.00,,,0.00,338,WeatherHawk,2013-06-08 20:17:00,
2013-06-08 15:22:00,86.7,18.3,30.01,SE,129,4.0,0.0,8,0.00,,,0.00,711,WeatherHawk,2013-06-08 20:22:00,
2013-06-08 15:27:00,86.9,18.5,30.01,South,183,8.0,0.0,8,0.00,,,0.00,1051,WeatherHawk,2013-06-08 20:27:00,
2013-06-08 15:32:00,87.5,21.7,30.00,SSW,212,5.0,0.0,9,0.00,,,0.00,1003,WeatherHawk,2013-06-08 20:32:00,
2013-06-08 15:37:00,86.0,17.8,30.00,SE,137,6.0,0.0,8,0.00,,,0.00,969,WeatherHawk,2013-06-08 20:37:00,
2013-06-08 15:42:00,87.4,21.6,30.00,SE,133,9.0,0.0,9,0.00,,,0.00,934,WeatherHawk,2013-06-08 20:42:00,
2013-06-08 15:47:00,86.6,18.3,29.99,ESE,114,8.0,0.0,8,0.00,,,0.00,721,WeatherHawk,2013-06-08 20:47:00,
2013-06-08 15:53:00,89.0,22.8,29.99,SSE,152,7.0,0.0,9,0.00,,,0.00,835,WeatherHawk,2013-06-08 20:53:00,
2013-06-08 15:58:00,88.1,22.2,29.99,East,100,5.0,0.0,9,0.00,,,0.00,699,WeatherHawk,2013-06-08 20:58:00,
2013-06-08 16:04:00,87.0,18.6,30.00,SE,140,6.0,0.0,8,0.00,,,0.00,628,WeatherHawk,2013-06-08 21:04:00,
2013-06-08 16:09:00,86.5,18.2,29.99,SE,132,10.0,0.0,8,0.00,,,0.00,621,WeatherHawk,2013-06-08 21:09:00,
2013-06-08 16:14:00,87.5,21.7,30.00,SSE,166,5.0,0.0,9,0.00,,,0.00,553,WeatherHawk,2013-06-08 21:14:00,
2013-06-08 16:19:00,86.3,20.8,30.00,SSE,158,5.0,0.0,9,0.00,,,0.00,721,WeatherHawk,2013-06-08 21:19:00,
2013-06-08 16:24:00,87.8,24.5,30.00,SSE,166,3.0,0.0,10,0.00,,,0.00,699,WeatherHawk,2013-06-08 21:24:00,
2013-06-08 16:29:00,89.3,25.6,29.99,ESE,103,5.0,0.0,10,0.00,,,0.00,747,WeatherHawk,2013-06-08 21:29:00,
2013-06-08 16:34:00,87.4,15.8,29.99,SE,133,6.0,0.0,7,0.00,,,0.00,769,WeatherHawk,2013-06-08 21:34:00,
2013-06-08 16:39:00,90.1,23.7,29.99,South,170,3.0,-999.0,9,0.00,,,0.00,750,WeatherHawk,2013-06-08 21:39:00,
2013-06-08 16:44:00,88.0,22.1,29.99,SSE,152,9.0,0.0,9,0.00,,,0.00,689,WeatherHawk,2013-06-08 21:44:00,
2013-06-08 16:49:00,87.7,21.8,29.99,South,170,3.0,0.0,9,0.00,,,0.00,628,WeatherHawk,2013-06-08 21:49:00,
2013-06-08 16:54:00,87.6,21.8,29.98,SSE,149,4.0,-999.0,9,0.00,,,0.00,376,WeatherHawk,2013-06-08 21:54:00,
2013-06-08 17:00:00,89.8,26.0,29.98,ENE,68,0.0,0.0,10,0.00,,,0.00,520,WeatherHawk,2013-06-08 22:00:00,
2013-06-08 17:05:00,87.2,24.0,29.99,SSE,149,10.0,0.0,10,0.00,,,0.00,660,WeatherHawk,2013-06-08 22:05:00,
2013-06-08 17:10:00,88.9,25.3,29.98,South,174,7.0,0.0,10,0.00,,,0.00,627,WeatherHawk,2013-06-08 22:10:00,
2013-06-08 17:15:00,87.1,23.9,29.99,SE,132,5.0,0.0,10,0.00,,,0.00,317,WeatherHawk,2013-06-08 22:15:00,
2013-06-08 17:20:00,87.7,26.6,29.97,South,174,5.0,0.0,11,0.00,,,0.00,635,WeatherHawk,2013-06-08 22:20:00,
2013-06-08 17:25:00,88.2,22.2,29.98,SSE,162,10.0,0.0,9,0.00,,,0.00,563,WeatherHawk,2013-06-08 22:25:00,
2013-06-08 17:30:00,87.5,24.2,29.98,ESE,109,5.0,0.0,10,0.00,,,0.00,606,WeatherHawk,2013-06-08 22:30:00,
2013-06-08 17:35:00,87.0,23.9,29.97,SE,146,9.0,0.0,10,0.00,,,0.00,577,WeatherHawk,2013-06-08 22:35:00,
2013-06-08 17:40:00,89.0,25.3,29.98,SE,134,4.0,0.0,10,0.00,,,0.00,509,WeatherHawk,2013-06-08 22:40:00,
2013-06-08 17:46:00,87.8,24.4,29.98,SSE,152,6.0,0.0,10,0.00,,,0.00,545,WeatherHawk,2013-06-08 22:46:00,
2013-06-08 17:51:00,86.9,21.3,29.97,ESE,121,8.0,0.0,9,0.00,,,0.00,541,WeatherHawk,2013-06-08 22:51:00,
2013-06-08 17:56:00,89.5,25.7,29.98,NNE,33,3.0,0.0,10,0.00,,,0.00,492,WeatherHawk,2013-06-08 22:56:00,
2013-06-08 18:02:00,88.8,25.2,29.97,South,187,6.0,0.0,10,0.00,,,0.00,485,WeatherHawk,2013-06-08 23:02:00,
2013-06-08 18:08:00,88.9,27.5,29.97,North,0,2.0,0.0,11,0.00,,,0.00,419,WeatherHawk,2013-06-08 23:08:00,
2013-06-08 18:13:00,87.1,26.2,29.97,ENE,68,8.0,0.0,11,0.00,,,0.00,293,WeatherHawk,2013-06-08 23:13:00,
2013-06-08 18:18:00,86.7,25.9,29.96,East,98,7.0,0.0,11,0.00,,,0.00,315,WeatherHawk,2013-06-08 23:18:00,
2013-06-08 18:23:00,87.1,28.3,29.97,East,98,4.0,0.0,12,0.00,,,0.00,221,WeatherHawk,2013-06-08 23:23:00,
2013-06-08 18:28:00,87.1,26.2,29.97,ESE,121,5.0,0.0,11,0.00,,,0.00,326,WeatherHawk,2013-06-08 23:28:00,
2013-06-08 18:33:00,87.4,28.5,29.97,NE,56,5.0,0.0,12,0.00,,,0.00,231,WeatherHawk,2013-06-08 23:33:00,
2013-06-08 18:39:00,87.2,26.3,29.97,East,97,6.0,0.0,11,0.00,,,0.00,364,WeatherHawk,2013-06-08 23:39:00,
2013-06-08 18:44:00,86.8,25.9,29.96,SSE,158,9.0,0.0,11,0.00,,,0.00,241,WeatherHawk,2013-06-08 23:44:00,
2013-06-08 18:49:00,87.7,28.8,29.98,West,276,7.0,0.0,12,0.00,,,0.00,250,WeatherHawk,2013-06-08 23:49:00,
2013-06-08 18:54:00,87.1,30.2,29.97,ESE,121,5.0,0.0,13,0.00,,,0.00,175,WeatherHawk,2013-06-08 23:54:00,
2013-06-08 18:59:00,86.1,29.5,29.97,ENE,72,6.0,0.0,13,0.00,,,0.00,200,WeatherHawk,2013-06-08 23:59:00,
2013-06-08 19:05:00,85.8,31.1,29.97,ESE,105,8.0,0.0,14,0.00,,,0.00,220,WeatherHawk,2013-06-09 00:05:00,
2013-06-08 19:10:00,85.7,31.0,29.97,East,93,6.0,0.0,14,0.00,,,0.00,210,WeatherHawk,2013-06-09 00:10:00,
2013-06-08 19:15:00,86.1,31.3,29.97,West,259,3.0,0.0,14,0.00,,,0.00,227,WeatherHawk,2013-06-09 00:15:00,
2013-06-08 19:20:00,85.6,32.6,29.97,WSW,247,6.0,0.0,15,0.00,,,0.00,158,WeatherHawk,2013-06-09 00:20:00,
2013-06-08 19:25:00,85.2,30.6,29.97,SE,127,6.0,0.0,14,0.00,,,0.00,181,WeatherHawk,2013-06-09 00:25:00,
2013-06-08 19:30:00,84.8,32.0,29.98,SE,133,4.0,0.0,15,0.00,,,0.00,88,WeatherHawk,2013-06-09 00:30:00,
2013-06-08 19:36:00,84.6,31.9,29.98,ESE,122,6.0,0.0,15,0.00,,,0.00,75,WeatherHawk,2013-06-09 00:36:00,
2013-06-08 19:41:00,84.5,33.4,29.98,East,79,4.0,0.0,16,0.00,,,0.00,108,WeatherHawk,2013-06-09 00:41:00,
2013-06-08 19:47:00,84.3,33.2,29.98,East,81,8.0,0.0,16,0.00,,,0.00,70,WeatherHawk,2013-06-09 00:47:00,
2013-06-08 19:52:00,84.1,33.1,29.98,South,189,3.0,0.0,16,0.00,,,0.00,57,WeatherHawk,2013-06-09 00:52:00,
2013-06-08 19:57:00,84.0,33.0,29.98,ESE,117,2.0,0.0,16,0.00,,,0.00,64,WeatherHawk,2013-06-09 00:57:00,
2013-06-08 20:02:00,84.0,33.0,29.99,East,101,5.0,0.0,16,0.00,,,0.00,83,WeatherHawk,2013-06-09 01:02:00,
2013-06-08 20:07:00,84.1,33.0,29.98,NE,45,2.0,0.0,16,0.00,,,0.00,77,WeatherHawk,2013-06-09 01:07:00,
2013-06-08 20:12:00,83.8,32.8,29.98,ENE,76,4.0,0.0,16,0.00,,,0.00,56,WeatherHawk,2013-06-09 01:12:00,
2013-06-08 20:17:00,83.5,32.5,29.98,East,83,3.0,0.0,16,0.00,,,0.00,50,WeatherHawk,2013-06-09 01:17:00,
2013-06-08 20:23:00,83.2,33.9,29.98,ESE,114,3.0,0.0,17,0.00,,,0.00,33,WeatherHawk,2013-06-09 01:23:00,
2013-06-08 20:28:00,82.9,33.6,29.97,East,96,4.0,0.0,17,0.00,,,0.00,18,WeatherHawk,2013-06-09 01:28:00,
2013-06-08 20:33:00,83.0,33.6,29.98,SE,130,6.0,0.0,17,0.00,,,0.00,10,WeatherHawk,2013-06-09 01:33:00,
2013-06-08 20:39:00,82.5,33.3,29.97,North,351,8.0,0.0,17,0.00,,,0.00,2,WeatherHawk,2013-06-09 01:39:00,
2013-06-08 20:44:00,82.3,33.1,29.98,ESE,114,3.0,0.0,17,0.00,,,0.00,1,WeatherHawk,2013-06-09 01:44:00,
2013-06-08 20:50:00,82.1,34.4,29.98,SE,146,5.0,0.0,18,0.00,,,0.00,0,WeatherHawk,2013-06-09 01:50:00,
2013-06-08 20:56:00,82.2,34.5,29.98,ENE,67,11.0,0.0,18,0.00,,,0.00,0,WeatherHawk,2013-06-09 01:56:00,
2013-06-08 21:01:00,81.9,34.2,29.98,SE,136,3.0,0.0,18,0.00,,,0.00,1,WeatherHawk,2013-06-09 02:01:00,
2013-06-08 21:06:00,81.8,35.5,30.00,East,98,4.0,0.0,19,0.00,,,0.00,0,WeatherHawk,2013-06-09 02:06:00,
2013-06-08 21:11:00,82.0,35.6,29.99,ESE,121,12.0,0.0,19,0.00,,,0.00,0,WeatherHawk,2013-06-09 02:11:00,
2013-06-08 21:17:00,81.7,35.4,29.99,SE,124,7.0,0.0,19,0.00,,,0.00,0,WeatherHawk,2013-06-09 02:17:00,
2013-06-08 21:23:00,81.5,36.6,29.99,SE,128,6.0,0.0,20,0.00,,,0.00,0,WeatherHawk,2013-06-09 02:23:00,
2013-06-08 21:28:00,80.9,37.3,30.00,South,179,5.0,0.0,21,0.00,,,0.00,1,WeatherHawk,2013-06-09 02:28:00,
2013-06-08 21:33:00,81.0,37.3,30.00,ESE,116,9.0,0.0,21,0.00,,,0.00,0,WeatherHawk,2013-06-09 02:33:00,
2013-06-08 21:39:00,80.8,38.4,30.01,SSE,153,6.0,0.0,22,0.00,,,0.00,1,WeatherHawk,2013-06-09 02:39:00,
2013-06-08 21:44:00,80.4,38.0,30.00,SSE,162,2.0,0.0,22,0.00,,,0.00,0,WeatherHawk,2013-06-09 02:44:00,
2013-06-08 21:49:00,80.2,39.0,30.00,ESE,109,5.0,-999.0,23,0.00,,,0.00,0,WeatherHawk,2013-06-09 02:49:00,
2013-06-08 21:54:00,79.7,38.6,30.00,SE,138,3.0,0.0,23,0.00,,,0.00,0,WeatherHawk,2013-06-09 02:54:00,
2013-06-08 21:59:00,79.3,39.4,30.02,North,350,0.0,-999.0,24,0.00,,,0.00,0,WeatherHawk,2013-06-09 02:59:00,
2013-06-08 22:04:00,79.0,40.2,30.02,SE,146,0.0,0.0,25,0.00,,,0.00,1,WeatherHawk,2013-06-09 03:04:00,
2013-06-08 22:09:00,79.0,41.1,30.01,East,93,5.0,-999.0,26,0.00,,,0.00,0,WeatherHawk,2013-06-09 03:09:00,
2013-06-08 22:15:00,78.9,41.1,30.02,East,96,3.0,0.0,26,0.00,,,0.00,0,WeatherHawk,2013-06-09 03:15:00,
2013-06-08 22:20:00,79.1,41.3,30.02,ESE,103,5.0,0.0,26,0.00,,,0.00,0,WeatherHawk,2013-06-09 03:20:00,
2013-06-08 22:25:00,78.6,41.8,30.03,SE,130,3.0,0.0,27,0.00,,,0.00,0,WeatherHawk,2013-06-09 03:25:00,
2013-06-08 22:30:00,78.5,41.7,30.04,ESE,106,3.0,0.0,27,0.00,,,0.00,0,WeatherHawk,2013-06-09 03:30:00,
2013-06-08 22:36:00,78.1,41.4,30.02,NE,54,5.0,0.0,27,0.00,,,0.00,2,WeatherHawk,2013-06-09 03:36:00,
2013-06-08 22:41:00,78.3,41.6,30.02,ESE,114,6.0,0.0,27,0.00,,,0.00,1,WeatherHawk,2013-06-09 03:41:00,
2013-06-08 22:47:00,78.5,41.7,30.02,ESE,119,7.0,0.0,27,0.00,,,0.00,1,WeatherHawk,2013-06-09 03:47:00,
2013-06-08 22:52:00,78.1,41.4,30.03,SE,124,4.0,0.0,27,0.00,,,0.00,0,WeatherHawk,2013-06-09 03:52:00,
2013-06-08 22:57:00,78.2,40.5,30.03,ESE,107,6.0,0.0,26,0.00,,,0.00,0,WeatherHawk,2013-06-09 03:57:00,
2013-06-08 23:01:00,78.0,41.3,30.03,SE,143,5.0,0.0,27,0.00,,,0.00,0,WeatherHawk,2013-06-09 04:01:00,
2013-06-08 23:02:00,78.0,41.3,30.03,South,178,3.0,0.0,27,0.00,,,0.00,0,WeatherHawk,2013-06-09 04:02:00,
2013-06-08 23:03:00,78.1,41.4,30.03,SE,141,6.0,0.0,27,0.00,,,0.00,1,WeatherHawk,2013-06-09 04:03:00,
2013-06-08 23:09:00,77.6,41.9,30.04,ESE,114,3.0,0.0,28,0.00,,,0.00,0,WeatherHawk,2013-06-09 04:09:00,
2013-06-08 23:14:00,77.7,41.0,30.03,SE,140,4.0,0.0,27,0.00,,,0.00,0,WeatherHawk,2013-06-09 04:14:00,
2013-06-08 23:19:00,77.9,41.2,30.03,East,88,6.0,0.0,27,0.00,,,0.00,0,WeatherHawk,2013-06-09 04:19:00,
2013-06-08 23:24:00,77.8,41.1,30.04,SE,129,3.0,0.0,27,0.00,,,0.00,0,WeatherHawk,2013-06-09 04:24:00,
2013-06-08 23:29:00,77.2,41.5,30.03,NNE,27,4.0,0.0,28,0.00,,,0.00,0,WeatherHawk,2013-06-09 04:29:00,
2013-06-08 23:34:00,77.2,42.4,30.04,East,101,4.0,0.0,29,0.00,,,0.00,0,WeatherHawk,2013-06-09 04:34:00,
2013-06-08 23:39:00,77.3,42.6,30.04,ESE,117,2.0,0.0,29,0.00,,,0.00,0,WeatherHawk,2013-06-09 04:39:00,
2013-06-08 23:44:00,77.3,42.6,30.05,East,90,6.0,0.0,29,0.00,,,0.00,0,WeatherHawk,2013-06-09 04:44:00,
2013-06-08 23:49:00,77.3,41.6,30.04,ESE,108,3.0,0.0,28,0.00,,,0.00,1,WeatherHawk,2013-06-09 04:49:00,
2013-06-08 23:54:00,77.3,41.7,30.06,SE,141,7.0,0.0,28,0.00,,,0.00,1,WeatherHawk,2013-06-09 04:54:00,
2013-06-08 23:59:00,77.2,41.6,30.05,ESE,111,4.0,0.0,28,0.00,,,0.00,0,WeatherHawk,2013-06-09 04:59:00,